When you browse on this site, cookies collect data to enhance your experience and personalize the content and advertising you see.
Visit our Privacy Policy to learn more. By continuing to use the site, you agree to this use of cookies and data.
  • In Lithuania
  • List of Countries
  • For 7 days
  • Water Temperature
  • Satellite Maps
  • Weather Map
  • Weather Widgets
  • user-avatar
    Login

    Hourly Weather Pravoegorlykskiy

    Today, 23 February, Saturday

    Time Temperature Precipitation Wind Pressure Humidity
    00:00 +5°C° 0.1 mm 2 mps 753 mmHg 78%
    01:00 +4°C° 0.1 mm 2 mps 753 mmHg 78%
    02:00 +4°C° 0.1 mm 2 mps 753 mmHg 78%
    03:00 +4°C° 0.1 mm 2 mps 753 mmHg 78%
    04:00 +4°C° 0.1 mm 2 mps 754 mmHg 77%
    05:00 +4°C° 0.1 mm 2 mps 754 mmHg 77%
    06:00 +3°C° 0.1 mm 2 mps 754 mmHg 77%
    07:00 +3°C° 0 mm 3 mps 754 mmHg 75%
    08:00 +3°C° 0 mm 3 mps 755 mmHg 73%
    09:00 +3°C° 0 mm 4 mps 755 mmHg 71%
    10:00 +5°C° 0 mm 4 mps 755 mmHg 68%
    11:00 +6°C° 0 mm 4 mps 755 mmHg 65%
    12:00 +7°C° 0 mm 4 mps 755 mmHg 63%
    13:00 +7°C° 0 mm 4 mps 755 mmHg 63%
    14:00 +8°C° 0 mm 3 mps 755 mmHg 64%
    15:00 +8°C° 0 mm 3 mps 755 mmHg 64%
    16:00 +8°C° 0.1 mm 2 mps 756 mmHg 68%
    17:00 +7°C° 0.1 mm 2 mps 756 mmHg 72%
    18:00 +7°C° 0.1 mm 2 mps 756 mmHg 76%
    19:00 +7°C° 0.1 mm 1 mps 757 mmHg 78%
    20:00 +7°C° 0.1 mm 1 mps 757 mmHg 80%
    21:00 +7°C° 0.1 mm 1 mps 757 mmHg 83%
    22:00 +5°C° 0 mm 2 mps 758 mmHg 83%
    23:00 +4°C° 0 mm 2 mps 758 mmHg 84%

    Tomorrow, 24 February, Sunday

    Time Temperature Precipitation Wind Pressure Humidity
    00:00 +3°C° 0 mm 3 mps 758 mmHg 85%
    01:00 +2°C° 0 mm 3 mps 758 mmHg 86%
    02:00 +2°C° 0 mm 3 mps 758 mmHg 87%
    03:00 +1°C° 0 mm 3 mps 758 mmHg 88%
    04:00 +1°C° 0 mm 3 mps 758 mmHg 89%
    05:00 0°C° 0 mm 3 mps 758 mmHg 90%
    06:00 +1°C° 0 mm 2 mps 758 mmHg 91%
    07:00 +1°C° 0 mm 2 mps 759 mmHg 90%
    08:00 0°C° 0 mm 3 mps 759 mmHg 89%
    09:00 0°C° 0 mm 3 mps 759 mmHg 87%
    10:00 0°C° 0.2 mm 3 mps 759 mmHg 85%
    11:00 0°C° 0.2 mm 3 mps 759 mmHg 84%
    12:00 +1°C° 0.2 mm 3 mps 759 mmHg 82%
    13:00 +1°C° 0.3 mm 3 mps 759 mmHg 81%
    14:00 +1°C° 0.3 mm 3 mps 759 mmHg 81%
    15:00 +1°C° 0.3 mm 3 mps 759 mmHg 81%
    16:00 +1°C° 0 mm 3 mps 760 mmHg 81%
    17:00 0°C° 0 mm 3 mps 760 mmHg 82%
    18:00 0°C° 0 mm 3 mps 760 mmHg 82%
    19:00 0°C° 0 mm 3 mps 760 mmHg 83%
    20:00 -1°C° 0 mm 3 mps 761 mmHg 85%
    21:00 -1°C° 0 mm 3 mps 761 mmHg 86%
    22:00 -2°C° 0 mm 3 mps 761 mmHg 86%
    23:00 -2°C° 0 mm 3 mps 761 mmHg 86%

    Day after tomorrow, 25 February, Monday

    Time Temperature Precipitation Wind Pressure Humidity
    00:00 -4°C° 0 mm 3 mps 761 mmHg 85%
    01:00 -4°C° 0 mm 3 mps 761 mmHg 84%
    02:00 -4°C° 0 mm 3 mps 761 mmHg 83%
    03:00 -4°C° 0 mm 3 mps 761 mmHg 82%
    04:00 -5°C° 0 mm 3 mps 760 mmHg 82%
    05:00 -5°C° 0 mm 3 mps 760 mmHg 81%
    06:00 -5°C° 0 mm 3 mps 760 mmHg 81%
    07:00 -5°C° 0 mm 4 mps 760 mmHg 76%
    08:00 -4°C° 0 mm 4 mps 760 mmHg 71%
    09:00 -4°C° 0 mm 4 mps 760 mmHg 67%
    10:00 -2°C° 0 mm 5 mps 759 mmHg 58%
    11:00 -1°C° 0 mm 5 mps 759 mmHg 50%
    12:00 -1°C° 0 mm 6 mps 758 mmHg 42%
    13:00 +1°C° 0 mm 6 mps 758 mmHg 44%
    14:00 +1°C° 0 mm 6 mps 757 mmHg 46%
    15:00 +2°C° 0 mm 7 mps 756 mmHg 49%
    16:00 +1°C° 0 mm 6 mps 756 mmHg 55%
    17:00 0°C° 0 mm 5 mps 755 mmHg 61%
    18:00 -1°C° 0 mm 5 mps 755 mmHg 67%
    19:00 -1°C° 0 mm 5 mps 754 mmHg 69%
    20:00 -2°C° 0 mm 6 mps 754 mmHg 71%
    21:00 -2°C° 0 mm 7 mps 754 mmHg 73%
    22:00 -3°C° 0 mm 7 mps 753 mmHg 74%
    23:00 -3°C° 0 mm 7 mps 752 mmHg 75%

    26 February, Tuesday

    Time Temperature Precipitation Wind Pressure Humidity
    00:00 -3°C° 0 mm 7 mps 752 mmHg 77%
    01:00 -4°C° 0 mm 8 mps 751 mmHg 77%
    02:00 -4°C° 0 mm 8 mps 750 mmHg 77%
    03:00 -4°C° 0 mm 9 mps 749 mmHg 77%
    04:00 -4°C° 0.1 mm 9 mps 749 mmHg 77%
    05:00 -3°C° 0.1 mm 10 mps 748 mmHg 77%
    06:00 -3°C° 0.1 mm 10 mps 747 mmHg 78%
    07:00 -3°C° 0.3 mm 10 mps 747 mmHg 78%
    08:00 -3°C° 0.3 mm 10 mps 747 mmHg 79%
    09:00 -3°C° 0.3 mm 10 mps 747 mmHg 80%
    10:00 -2°C° 0.2 mm 10 mps 746 mmHg 75%
    11:00 -2°C° 0.2 mm 10 mps 746 mmHg 71%
    12:00 -2°C° 0.2 mm 10 mps 745 mmHg 67%
    13:00 0°C° 0.1 mm 9 mps 745 mmHg 66%
    14:00 0°C° 0.1 mm 9 mps 744 mmHg 65%
    15:00 0°C° 0.1 mm 9 mps 744 mmHg 65%
    16:00 -1°C° 0.1 mm 8 mps 744 mmHg 68%
    17:00 -1°C° 0.1 mm 7 mps 743 mmHg 71%
    18:00 -1°C° 0.1 mm 6 mps 743 mmHg 75%
    19:00 -2°C° 0 mm 6 mps 743 mmHg 77%
    20:00 -2°C° 0 mm 6 mps 743 mmHg 80%
    21:00 -3°C° 0 mm 6 mps 743 mmHg 82%
    22:00 -3°C° 0 mm 6 mps 742 mmHg 82%
    23:00 -3°C° 0 mm 6 mps 742 mmHg 83%

    27 February, Wednesday

    Time Temperature Precipitation Wind Pressure Humidity
    00:00 -3°C° 0 mm 6 mps 741 mmHg 83%
    01:00 -2°C° 0 mm 5 mps 741 mmHg 84%
    02:00 -2°C° 0 mm 5 mps 740 mmHg 86%
    03:00 -2°C° 0 mm 4 mps 740 mmHg 87%
    04:00 -1°C° 0.1 mm 3 mps 740 mmHg 89%
    05:00 -1°C° 0.1 mm 2 mps 740 mmHg 91%
    06:00 -1°C° 0.1 mm 2 mps 739 mmHg 92%
    07:00 -1°C° 0.2 mm 2 mps 739 mmHg 91%
    08:00 +2°C° 0.2 mm 1 mps 740 mmHg 90%
    09:00 +2°C° 0.2 mm 1 mps 740 mmHg 89%
    10:00 +3°C° 0.3 mm 1 mps 740 mmHg 87%
    11:00 +3°C° 0.3 mm 1 mps 740 mmHg 85%
    12:00 +3°C° 0.3 mm 2 mps 740 mmHg 83%
    13:00 +4°C° 0.1 mm 1 mps 740 mmHg 81%
    14:00 +4°C° 0.1 mm 1 mps 740 mmHg 79%
    15:00 +4°C° 0.1 mm 0 mps 740 mmHg 77%
    16:00 +4°C° 0 mm 1 mps 740 mmHg 80%
    17:00 +2°C° 0 mm 2 mps 741 mmHg 84%
    18:00 +2°C° 0 mm 2 mps 741 mmHg 88%
    19:00 0°C° 0 mm 3 mps 742 mmHg 88%
    20:00 0°C° 0 mm 3 mps 742 mmHg 87%
    21:00 0°C° 0 mm 3 mps 743 mmHg 87%
    22:00 -1°C° 0 mm 3 mps 743 mmHg 88%
    23:00 -1°C° 0 mm 2 mps 743 mmHg 89%

    28 February, Thursday

    Time Temperature Precipitation Wind Pressure Humidity
    00:00 -2°C° 0 mm 2 mps 744 mmHg 90%
    01:00 -2°C° 0 mm 2 mps 744 mmHg 92%
    02:00 -3°C° 0 mm 2 mps 744 mmHg 93%
    03:00 -3°C° 0 mm 2 mps 745 mmHg 94%
    04:00 -3°C° 0 mm 2 mps 745 mmHg 93%
    05:00 -4°C° 0 mm 3 mps 745 mmHg 92%
    06:00 -4°C° 0 mm 3 mps 745 mmHg 91%
    07:00 -4°C° 0 mm 4 mps 746 mmHg 88%
    08:00 -3°C° 0 mm 4 mps 746 mmHg 84%
    09:00 -2°C° 0 mm 5 mps 746 mmHg 81%
    10:00 -1°C° 0 mm 5 mps 746 mmHg 78%
    11:00 -2°C° 0 mm 6 mps 745 mmHg 75%
    12:00 -1°C° 0 mm 6 mps 745 mmHg 72%
    13:00 -1°C° 0 mm 7 mps 744 mmHg 71%
    14:00 -1°C° 0 mm 7 mps 744 mmHg 69%
    15:00 0°C° 0 mm 7 mps 743 mmHg 67%
    16:00 -1°C° 0 mm 7 mps 743 mmHg 70%
    17:00 -1°C° 0 mm 7 mps 743 mmHg 73%
    18:00 -2°C° 0 mm 7 mps 743 mmHg 75%
    19:00 -2°C° 0 mm 7 mps 743 mmHg 76%
    20:00 -2°C° 0 mm 8 mps 743 mmHg 76%
    21:00 -3°C° 0 mm 9 mps 743 mmHg 76%
    22:00 -3°C° 0 mm 9 mps 742 mmHg 75%
    23:00 -3°C° 0 mm 9 mps 742 mmHg 74%
    Show more